Location: Temagami
(47.0645°N, 79.7909°W)
Time: 15:47:53
(UTC-05:00)

ISS - Visible Passes

Search period start: 30 November 2023 00:00
Search period end: 10 December 2023 00:00
Orbit: 416 x 417 km, 51.6° (Epoch: 30 November)

Date Brightness Start Highest point End Pass type
(mag) Time Alt. Az. Time Alt. Az. Time Alt. Az.
30 Nov -3.4 17:41:11 10° WNW 17:44:27 48° NNE 17:46:26 21° E visible
30 Nov -1.2 19:17:59 10° WNW 19:19:21 21° W 19:19:21 21° W visible
01 Dec -3.7 18:29:31 10° WNW 18:32:52 70° SSW 18:33:12 63° SSE visible
02 Dec -3.9 17:41:02 10° WNW 17:44:25 81° NNE 17:47:09 15° ESE visible
02 Dec -1.0 19:18:19 10° W 19:20:05 18° WSW 19:20:05 18° WSW visible
03 Dec -2.0 18:29:29 10° W 18:32:29 31° SW 18:34:14 19° SSE visible
04 Dec -2.8 17:40:46 10° WNW 17:44:01 48° SSW 17:47:14 10° SE visible
05 Dec -0.7 18:29:58 10° WSW 18:31:42 13° SW 18:33:25 10° SSW visible
06 Dec -1.0 17:40:38 10° W 17:43:15 21° SW 17:45:51 10° S visible
